Weather History for Olathe, KS

Change the Weather History Date:

Sunday, March 2, 2014

  Actual Average Record
Temperature  
Mean Temperature 5 °F 40 °F  
Max Temperature 8 °F 50 °F 78 °F (1992)
Min Temperature 1 °F 30 °F -1 °F (1980)
Degree Days  
Heating Degree Days 60 25  
Month to date heating degree days 103 51  
Since 1 July heating degree days 4584 3944  
Cooling Degree Days 0 0  
Month to date cooling degree days 0 0  
Year to date cooling degree days 0 0  
Moisture  
Dew Point -4 °F    
Average Humidity 69    
Maximum Humidity 86    
Minimum Humidity 51    
Precipitation  
Precipitation 0.17 in 0.09 in 1.31 in (1940)
Month to date precipitation 0.18 0.18  
Year to date precipitation 0.67 2.87  
Sea Level Pressure  
Sea Level Pressure 30.43 in    
Wind  
Wind Speed 16 mph (North)    
Max Wind Speed 24 mph    
Max Gust Speed 33 mph    
Visibility 4 miles    
Events Snow    
T = Trace of Precipitation, MM = Missing Value Source: NWS Daily Summary

Daily Weather History Graph

Daily Weather History Graph

Search for Another Location

Airport:

Trip Planner

Search our weather history database for the weather conditions in past years. The results will help you decide how hot, cold, wet, or windy it might be!

Date:

Astronomy

Mar. 02, 2014 Rise Set
Actual Time 6:49 AM CST 6:12 PM CST
Civil Twilight 6:23 AM CST 6:39 PM CST
Nautical Twilight 5:52 AM CST 7:10 PM CST
Astronomical Twilight 5:21 AM CST 7:41 PM CST
Moon 7:22 AM CST (3/2) 8:08 PM CST (3/2)
Length of Visible Light 12h 16m
Length of Day
11h 23m
Waxing Crescent, 3% of the Moon is Illuminated
Mar 2
Waxing Crescent
Mar 8
First Quarter
Mar 16
Full
Mar 23
Last Quarter
Mar 30
New

Hourly Weather History & Observations

Time (CST) Temp. Windchill Dew Point Humidity Pressure Visibility Wind Dir Wind Speed Gust Speed Precip Events Conditions
12:12 AM 8.1 °F -10.2 °F 3.0 °F 80% 30.31 in 1.8 mi NNE 17.3 mph 24.2 mph 0.00 in Snow Light Snow
12:18 AM 8.1 °F -11.7 °F 3.0 °F 80% 30.32 in 1.2 mi North 20.7 mph 25.3 mph 0.00 in Snow Light Snow
12:28 AM 7.0 °F -12.1 °F 1.9 °F 80% 30.33 in 1.5 mi NNE 18.4 mph - 0.00 in Snow Light Snow
12:37 AM 7.0 °F -11.6 °F 3.0 °F 84% 30.33 in 1.0 mi North 17.3 mph - 0.00 in Snow Light Snow
12:49 AM 6.8 °F -12.4 °F 1.4 °F 79% 30.35 in 1.5 mi North 18.4 mph 26.5 mph 0.01 in Snow Light Snow
12:53 AM 7.0 °F -11.0 °F 1.9 °F 80% 30.41 in 1.8 mi North 16.1 mph 26.5 mph 0.01 in Snow Light Snow
1:16 AM 6.1 °F -13.8 °F 1.0 °F 80% 30.33 in 2.0 mi North 19.6 mph - 0.03 in Snow Light Snow
1:22 AM 6.1 °F -12.8 °F 1.9 °F 83% 30.32 in 1.2 mi North 17.3 mph - 0.04 in Snow Light Snow
1:29 AM 6.1 °F -13.3 °F 1.0 °F 80% 30.32 in 1.0 mi NNE 18.4 mph 26.5 mph 0.05 in Snow Light Snow
1:50 AM 5.0 °F -13.0 °F 1.4 °F 85% 30.34 in 1.8 mi North 15.0 mph - 0.07 in Snow Light Snow
1:53 AM 5.0 °F -13.6 °F -0.0 °F 80% 30.40 in 2.0 mi North 16.1 mph - 0.07 in Snow Light Snow
2:13 AM 5.0 °F -14.2 °F -0.0 °F 80% 30.34 in 3.0 mi North 17.3 mph 27.6 mph 0.01 in Snow Light Snow
2:24 AM 5.0 °F -14.7 °F -0.9 °F 76% 30.34 in 2.5 mi North 18.4 mph - 0.01 in Snow Light Snow
2:35 AM 3.9 °F -16.1 °F -0.9 °F 80% 30.31 in 1.8 mi NNE 18.4 mph 33.4 mph 0.02 in Snow Light Snow
2:46 AM 3.9 °F -17.1 °F -0.9 °F 80% 30.32 in 2.0 mi NNE 20.7 mph 26.5 mph 0.03 in Snow Blowing Snow
2:53 AM 3.9 °F -15.0 °F -0.9 °F 80% 30.39 in 2.5 mi NNE 16.1 mph 26.5 mph 0.04 in Snow Light Snow
3:00 AM 3.9 °F -15.0 °F -0.9 °F 80% 30.31 in 4.0 mi NNE 16.1 mph - 0.00 in Snow Light Snow
3:53 AM 3.9 °F -15.6 °F -2.0 °F 76% 30.44 in 7.0 mi North 17.3 mph - 0.00 in   Overcast
4:36 AM 3.0 °F -17.8 °F -2.9 °F 76% 30.37 in 4.0 mi North 19.6 mph 26.5 mph 0.01 in Snow Blowing Snow
4:53 AM 3.0 °F -16.7 °F -2.9 °F 76% 30.46 in 5.0 mi North 17.3 mph 25.3 mph 0.01 in Snow Blowing Snow
5:21 AM 3.0 °F -15.5 °F -2.9 °F 76% 30.38 in 4.0 mi North 15.0 mph 25.3 mph 0.01 in Snow Light Snow
5:53 AM 3.0 °F -16.1 °F -2.9 °F 76% 30.47 in 9.0 mi North 16.1 mph 27.6 mph 0.01 in   Overcast
6:53 AM 3.0 °F -16.1 °F -2.9 °F 76% 30.47 in 10.0 mi North 16.1 mph 26.5 mph 0.00 in   Overcast
7:53 AM 3.0 °F -17.8 °F -4.0 °F 73% 30.51 in 6.0 mi North 19.6 mph 24.2 mph 0.00 in Snow Light Snow
8:53 AM 3.0 °F -16.7 °F -6.0 °F 66% 30.55 in 9.0 mi North 17.3 mph - 0.00 in   Overcast
9:53 AM 3.0 °F -16.7 °F -6.0 °F 66% 30.52 in 9.0 mi North 17.3 mph - 0.00 in   Overcast
10:53 AM 1.9 °F -19.8 °F -7.1 °F 66% 30.52 in 7.0 mi North 20.7 mph 28.8 mph 0.01 in   Overcast
11:51 AM 1.4 °F -18.8 °F -5.8 °F 72% 30.45 in 2.0 mi NNE 17.3 mph - 0.02 in Snow Light Snow
11:53 AM 1.9 °F -18.7 °F -5.1 °F 72% 30.53 in 1.8 mi NNE 18.4 mph - 0.02 in Snow Light Snow
12:02 PM 1.9 °F -17.5 °F -4.0 °F 76% 30.47 in 0.8 mi North 16.1 mph - 0.00 in Snow Light Snow
12:09 PM 1.9 °F -15.5 °F -5.1 °F 72% 30.46 in 0.8 mi North 12.7 mph - 0.00 in Snow Light Snow
12:41 PM 1.9 °F -18.7 °F -5.1 °F 72% 30.46 in 1.2 mi North 18.4 mph - 0.00 in Snow Light Snow
12:53 PM 1.9 °F -17.5 °F -5.1 °F 72% 30.52 in 1.2 mi North 16.1 mph - 0.00 in Snow Light Snow
1:13 PM 1.9 °F -16.2 °F -4.0 °F 76% 30.45 in 1.5 mi North 13.8 mph - 0.00 in Snow Light Snow
1:22 PM 1.9 °F -16.9 °F -5.1 °F 72% 30.44 in 1.0 mi North 15.0 mph - 0.00 in Snow Light Snow
1:28 PM 1.9 °F -16.2 °F -5.1 °F 72% 30.44 in 0.5 mi NNE 13.8 mph - 0.00 in Snow Snow
1:38 PM 1.9 °F -16.9 °F -4.0 °F 76% 30.45 in 0.5 mi North 15.0 mph - 0.00 in Snow Snow
1:53 PM 1.9 °F -14.7 °F -4.0 °F 76% 30.54 in 0.5 mi North 11.5 mph - 0.00 in Snow Snow
1:57 PM 1.9 °F -16.2 °F -5.1 °F 72% 30.45 in 1.0 mi North 13.8 mph - 0.00 in Snow Light Snow
2:04 PM 1.9 °F -16.9 °F -5.1 °F 72% 30.44 in 2.0 mi North 15.0 mph - 0.00 in Snow Light Snow
2:11 PM 3.0 °F -16.7 °F -4.0 °F 73% 30.44 in 3.0 mi North 17.3 mph - 0.00 in Snow Light Snow
2:53 PM 3.0 °F -17.3 °F -5.1 °F 69% 30.49 in 10.0 mi NNE 18.4 mph 25.3 mph 0.00 in   Overcast
3:53 PM 3.9 °F -14.3 °F -9.0 °F 55% 30.48 in 10.0 mi North 15.0 mph 23.0 mph N/A   Overcast
4:53 PM 3.0 °F -16.1 °F -9.9 °F 55% 30.50 in 10.0 mi North 16.1 mph - N/A   Overcast
5:53 PM 1.9 °F -20.2 °F -11.0 °F 55% 30.48 in 9.0 mi NNE 21.9 mph - N/A   Scattered Clouds
6:53 PM 1.9 °F -13.8 °F -11.0 °F 55% 30.50 in 10.0 mi NNE 10.4 mph - N/A   Clear
7:53 PM 1.9 °F -16.2 °F -11.9 °F 52% 30.54 in 10.0 mi North 13.8 mph 20.7 mph N/A   Clear
8:53 PM 1.0 °F -17.3 °F -13.0 °F 52% 30.55 in 10.0 mi North 13.8 mph - N/A   Clear
9:53 PM 1.0 °F -19.3 °F -13.0 °F 52% 30.53 in 10.0 mi North 17.3 mph - N/A   Clear
10:53 PM 1.9 °F -15.5 °F -11.0 °F 55% 30.54 in 10.0 mi North 12.7 mph - N/A   Clear
11:53 PM 1.0 °F -18.7 °F -11.9 °F 55% 30.56 in 10.0 mi North 16.1 mph - N/A   Clear